EW7001 Weather Reports


Display with metric or nautical units.
time (UTC)temp
F
wind
direction
speed
MPH
gust
MPH
rain 1hr
in
rain 24hr
in
rain mn
in
humidity
%
barometer
mb
20260901063043 57 314 0.0 1.0 0.00 0.03 0.03 46 1009.7
20260901061542 58 105 1.0 2.0 0.00 0.03 0.03 43 1009.6
20260901060040 59 161 1.0 3.0 0.00 0.03 0.03 41 1009.7
20260901054513 59 53 0.0 3.0 0.00 0.03 0.03 41 1009.9
20260901053010 59 161 0.0 3.0 0.00 0.03 0.03 41 1009.9
20260901051557 58 250 0.0 2.0 0.00 0.03 0.03 42 1009.9
20260901050037 60 178 0.0 2.0 0.00 0.03 0.03 41 1009.8
20260901044542 60 165 0.0 2.0 0.00 0.03 0.03 38 1009.9
20260901043034 60 340 0.0 2.0 0.00 0.03 0.03 38 1010.0
20260901041534 61 269 0.0 2.0 0.00 0.03 0.03 39 1010.0
20260901040034 60 303 0.0 1.0 0.00 0.03 0.03 38 1010.2
20260901034532 59 303 0.0 2.0 0.00 0.03 0.03 39 1010.1
20260901033029 60 142 1.0 2.0 0.00 0.03 0.03 36 1010.1
20260901031525 61 314 0.0 2.0 0.00 0.03 0.03 35 1010.0
20260901030019 62 117 1.0 3.0 0.00 0.03 0.03 34 1009.9
20260901024515 64 269 0.0 2.0 0.00 0.03 0.03 32 1009.8
20260901023011 66 269 0.0 2.0 0.00 0.03 0.03 31 1009.6
20260901021510 67 234 0.0 3.0 0.00 0.03 0.03 30 1009.5
20260901020002 71 114 1.0 3.0 0.00 0.03 0.03 27 1009.3
20260901014602 73 1 0.0 1.0 0.00 0.03 0.03 26 1009.3
20260901013059 74 79 1.0 4.0 0.00 0.03 0.03 25 1009.0
20260901011605 76 28 1.0 7.0 0.00 0.03 0.03 24 1009.0
20260901010058 77 35 3.0 8.0 0.00 0.03 0.03 23 1009.0
20260901004600 78 35 4.0 12.0 0.00 0.03 0.03 22 1009.0
20260901003055 80 351 3.0 9.0 0.00 0.03 0.03 17 1009.0
20260901001556 81 46 1.0 6.0 0.00 0.03 0.03 13 1009.0
20260901000052 81 299 3.0 7.0 0.00 0.03 0.03 11 1009.1
20260831234552 83 318 2.0 6.0 0.00 0.09 0.03 11 1009.0
20260831233049 82 1 1.0 7.0 0.00 0.09 0.03 10 1009.1
20260831231548 83 225 6.0 12.0 0.00 0.09 0.03 9 1009.2
20260831230043 83 331 4.0 9.0 0.00 0.09 0.03 10 1009.3
20260831224539 84 219 2.0 7.0 0.00 0.26 0.03 10 1009.3
20260831223034 83 314 3.0 13.0 0.00 0.26 0.03 11 1009.3
20260831221529 83 314 4.0 10.0 0.00 0.26 0.03 11 1009.5
20260831220026 83 228 3.0 8.0 0.00 0.26 0.03 11 1009.5
20260831214523 81 277 1.0 13.0 0.01 0.69 0.03 14 1009.7
20260831213018 82 168 4.0 13.0 0.02 0.69 0.03 13 1009.8
20260831211516 81 253 3.0 12.0 0.02 0.69 0.03 14 1009.9
20260831210013 81 331 5.0 14.0 0.03 0.69 0.03 14 1010.1
20260831204511 81 110 8.0 16.0 0.02 1.03 0.02 16 1010.3
20260831203005 80 206 3.0 9.0 0.01 1.02 0.01 21 1010.4
20260831201502 79 344 4.0 9.0 0.01 1.02 0.01 22 1010.5
20260831200059 78 169 4.0 9.0 0.00 1.01 0.00 24 1010.6
20260831194556 78 295 5.0 8.0 0.00 1.13 0.00 26 1010.8
20260831193050 76 299 2.0 10.0 0.00 1.13 0.00 28 1010.9
20260831191547 75 348 3.0 8.0 0.00 1.13 0.00 28 1011.0
20260831184543 75 331 1.0 9.0 0.00 1.40 0.00 30 1011.2
20260831183039 74 72 4.0 8.0 0.00 1.40 0.00 30 1011.1
20260831181533 73 126 5.0 9.0 0.00 1.40 0.00 32 1011.3
20260831180043 73 72 4.0 8.0 0.00 1.40 0.00 35 1011.5
20260831174530 73 321 2.0 8.0 0.00 1.49 0.00 35 1011.6
20260831173025 71 310 4.0 9.0 0.00 1.49 0.00 36 1011.6
20260831171522 71 325 4.0 10.0 0.00 1.49 0.00 39 1011.4
20260831170019 70 333 4.0 12.0 0.00 1.49 0.00 41 1011.3
20260831164534 70 223 3.0 8.0 0.00 1.51 1.49 41 1011.2
20260831163046 69 316 4.0 9.0 0.00 1.51 1.49 44 1011.0
20260831161544 68 331 4.0 11.0 0.00 1.51 1.49 46 1010.8
20260831160012 67 277 3.0 10.0 0.00 1.51 1.49 50 1010.6
20260831154511 67 290 5.0 12.0 0.00 1.51 1.49 49 1010.6
20260831153008 68 314 4.0 8.0 0.00 1.51 1.49 49 1010.5
20260831151507 67 312 3.0 8.0 0.00 1.51 1.49 50 1010.3
20260831150010 66 178 3.0 7.0 0.00 1.51 1.49 54 1010.3
20260831144513 64 231 2.0 8.0 0.00 1.51 1.49 58 1010.3
20260831143037 61 269 2.0 7.0 0.00 1.51 1.49 64 1010.2
20260831141533 58 221 6.0 9.0 0.00 1.51 1.49 66 1010.1
20260831140031 57 197 5.0 9.0 0.00 1.51 1.49 68 1010.0
20260831134529 55 204 5.0 8.0 0.00 1.53 1.49 70 1009.8
20260831133026 53 192 3.0 7.0 0.00 1.53 1.49 75 1009.7
20260831131524 50 105 1.0 5.0 0.00 1.53 1.49 80 1009.5
20260831130021 48 247 4.0 7.0 0.00 1.53 1.49 82 1009.3
20260831124520 47 207 5.0 9.0 0.00 1.53 1.49 83 1009.0
20260831123017 47 207 6.0 8.0 0.00 1.53 1.49 83 1008.8
20260831121515 47 220 4.0 6.0 0.00 1.53 1.49 82 1008.7
20260831120025 48 170 3.0 6.0 0.00 1.53 1.49 81 1008.4
20260831114524 48 206 2.0 4.0 0.00 1.53 1.49 79 1008.3
20260831113007 49 223 3.0 5.0 0.00 1.53 1.49 76 1008.1
20260831111506 50 208 4.0 8.0 0.00 1.53 1.49 76 1008.0
20260831110005 48 218 1.0 4.0 0.00 1.53 1.49 77 1008.0
20260831104503 46 171 1.0 4.0 0.00 1.54 1.49 85 1007.9
20260831103001 43 63 0.0 2.0 0.00 1.54 1.49 85 1008.0
20260831101600 44 178 2.0 5.0 0.00 1.54 1.49 85 1007.9
20260831100104 43 46 0.0 4.0 0.00 1.54 1.49 84 1007.8
20260831094554 44 56 0.0 2.0 0.00 1.54 1.49 86 1007.7
20260831093052 44 81 1.0 3.0 0.00 1.54 1.49 84 1007.5
20260831091547 45 108 1.0 2.0 0.00 1.54 1.49 82 1007.4
20260831090044 47 145 2.0 5.0 0.00 1.54 1.49 80 1007.3
20260831084539 48 306 1.0 3.0 0.00 1.57 1.49 81 1007.4
20260831083039 49 1 0.0 2.0 0.00 1.57 1.49 82 1007.0
20260831081538 49 216 0.0 2.0 0.00 1.57 1.49 83 1006.9
20260831080038 49 137 3.0 4.0 0.00 1.57 1.49 81 1006.9
20260831074534 50 122 2.0 4.0 0.00 1.57 1.49 81 1007.0
20260831073033 50 121 3.0 5.0 0.00 1.57 1.49 82 1007.0
20260831071533 50 132 2.0 4.0 0.00 1.57 1.49 84 1007.3
20260831070036 50 113 1.0 3.0 0.00 1.57 1.49 83 1007.3
20260831064627 49 124 2.0 4.0 0.00 1.57 1.49 85 1007.2